CAPE
0 0 0 0 0 0 0 0 0 0 0 0 0 0 0 0 0 0 0 0 0 0 0 0 0 0 0 0 0 0 0 0 0 0 0 0 0 0 0 0 0 0 0
0 0 0 0 0 0 0 0 0 0 0 0 0 0 0 0 0 0 0 0 0 0 0 0 0 0 0 0 0 0 0 0 0 0 0 0 0 0 0 0 0 0 0
0 0 0 0 0 0 0 0 0 0 0 0 0 0 0 0 0 0 0 0 0 0 0 0 0 0 0 0 0 0 0 0 0 0 0 0 0 0 0 0 0 0 0
0 0 0 0 0 0 0 0 0 0 0 0 0 0 0 0 0 0 0 0 0 0 0 0 0 0 0 0 0 0 0 0 0 0 0 0 0 0 0 0 0 0 0
0 0 0 0 0 0 0 0 0 0 0 0 0 0 0 0 0 0 0 0 0 0 0 0 0 1 9 5 2 0 0 0 1 3 1 1 0 0 0 0 0 0 0
0 0 0 0 0 0 0 0 0 0 0 0 0 0 0 0 0 0 0 0 0 0 0 0 0 1 1 8 13 16 9 3 0 0 14 5 1 3 0 0 0 0 0
0 0 0 0 0 0 0 0 0 0 0 0 0 0 0 0 0 2 4 2 2 3 4 2 1 1 5 3 5 10 9 4 11 1 1 5 4 2 2 10 1 0 0
0 0 0 0 0 0 0 0 0 0 0 0 0 0 0 0 0 3 5 4 3 4 4 6 5 3 1 10 6 1 3 2 5 8 2 1 2 2 5 5 0 0 4
0 0 0 0 0 0 0 0 0 0 0 0 0 0 0 0 0 4 8 5 6 6 2 0 0 0 6 18 12 3 9 8 3 10 17 23 41 46 25 3 6 18 6
0 0 0 0 0 0 0 0 0 0 0 0 0 0 0 0 0 4 9 3 0 1 0 0 10 14 26 28 16 0 0 0 0 0 0 0 0 0 0 2 1 13 19
0 0 0 0 0 0 0 0 0 0 0 0 0 0 0 0 0 3 12 7 1 0 1 0 0 6 25 31 40 3 0 4 0 0 0 0 0 0 0 0 1 22 20
0 0 0 0 0 0 0 0 0 0 0 0 0 0 0 0 0 1 13 16 17 1 0 1 0 17 35 62 69 69 88 75 3 0 0 0 0 0 0 0 0 1 3
0 0 0 0 0 0 0 0 0 0 0 0 0 0 0 0 0 2 6 6 19 9 2 11 39 44 52 23 15 36 11 0 0 0 0 0 0 0 0 0 0 0 0
0 0 0 0 0 0 0 0 0 0 0 0 0 0 0 0 0 0 0 0 16 0 7 1 2 2 3 2 0 0 0 0 0 0 0 0 0 0 0 0 0 0 0
0 0 0 0 0 0 0 0 0 0 0 0 0 0 0 0 0 12 15 3 3 11 1 0 0 0 0 0 0 0 0 1 1 0 0 0 0 0 0 0 0 0 0
0 0 0 0 0 0 0 0 0 1 4 6 8 4 0 9 17 20 29 21 19 18 0 0 0 0 0 0 0 0 0 0 0 0 2 4 0 0 0 0 1 0 0
0 0 0 0 0 0 0 0 0 0 0 0 1 4 8 12 13 20 18 18 4 1 0 0 0 0 0 0 0 0 0 0 0 0 0 0 2 0 0 0 2 4 0
0 0 0 0 0 0 0 0 0 0 0 0 0 0 3 6 12 13 15 1 0 0 0 0 0 0 0 0 0 0 0 0 0 0 0 1 0 0 0 0 0 0 2
0 0 0 0 0 0 0 0 0 0 0 0 0 0 0 1 5 1 2 0 0 0 0 0 0 0 0 0 0 0 0 0 0 0 0 1 0 0 0 0 0 0 3
0 0 0 0 0 0 0 0 0 0 0 0 0 0 0 0 0 0 0 0 0 0 0 0 0 0 0 0 0 0 0 0 0 0 0 0 0 0 0 0 0 0 0
0 0 0 0 0 0 0 0 0 0 0 0 0 0 9 0 0 0 0 0 0 0 0 0 0 0 0 0 0 0 0 0 0 0 0 0 0 0 0 0 0 0 0
0 0 0 0 0 0 0 0 0 0 0 0 0 0 3 0 0 0 0 0 0 0 0 0 0 0 0 0 0 0 0 0 0 0 0 0 0 0 0 0 0 0 0
0 0 0 0 0 0 0 0 0 0 0 0 0 0 0 0 0 0 0 0 0 0 0 0 0 0 0 0 0 0 0 0 0 0 0 0 0 0 0 0 0 0 0
0 0 0 0 0 0 0 0 0 0 0 0 0 0 0 0 0 0 0 0 0 0 0 0 0 0 0 0 0 0 0 0 0 0 0 0 0 0 0 0 0 0 0
0 0 0 0 0 0 0 0 0 0 0 0 0 0 0 0 0 0 0 0 0 0 0 0 0 0 0 0 0 0 0 0 0 0 0 0 0 0 0 0 0 0 0
0 0 0 0 0 0 0 0 0 0 0 0 0 0 0 0 0 0 0 0 0 0 0 0 0 0 0 0 0 0 0 3 0 0 0 0 0 0 0 0 0 0 0
CIN
-0 -0 -0 -0 -0 -0 -0 -0 -0 -0 -0 -0 -0 -0 -0 -0 -0 -0 -0 -0 -0 -0 -0 -0 -0 -0 -0 -0 -0 -0 -0 -0 -0 -0 -0 -0 -0 -0 -0 -0 -0 -0 -0
-0 -0 -0 -0 -0 -0 -0 -0 -0 -0 -0 -0 -0 -0 -0 -0 -0 -0 -0 -0 -0 -0 -0 -0 -0 -0 -0 -0 -0 -0 -0 -0 -0 -0 -0 -0 -0 -0 -0 -0 -0 -0 -0
-0 -0 -0 -0 -0 -0 -0 -0 -0 -0 -0 -0 -0 -0 -0 -0 -0 -0 -0 -0 -0 -0 -0 -0 -0 -0 -0 -0 -0 -0 -0 -0 -0 -0 -0 -0 -0 -0 -0 -0 -0 -0 -0
-0 -0 -0 -0 -0 -0 -0 -0 -0 -0 -0 -0 -0 -0 -0 -0 -0 -0 -0 -0 -0 -0 -0 -0 -0 -0 -0 -0 -0 -0 -0 -0 -0 -0 -0 -0 -0 -0 -0 -0 -0 -0 -0
-0 -0 -0 -0 -0 -0 -0 -0 -0 -0 -0 -0 -0 -0 -0 -0 -0 -0 -0 -0 -0 -0 -0 -0 -0 -1 -0 -0 -0 -0 -0 -0 -1 -0 -0 -0 -0 -0 -0 -0 -0 -0 -0
-0 -0 -0 -0 -0 -0 -0 -0 -0 -0 -0 -0 -0 -0 -0 -0 -0 -0 -0 -0 -0 -0 -0 -0 -0 -0 -0 -0 -0 -0 -0 -1 -2 -0 -0 -0 -0 -0 -0 -0 -0 -0 -0
-0 -0 -0 -0 -0 -0 -0 -0 -0 -0 -0 -0 -0 -0 -0 -0 -0 -0 -0 -0 -0 -0 -0 -0 -0 -0 -0 -0 -0 -0 -0 -0 -0 -0 -0 -0 -0 -0 -0 -0 -2 -0 -0
-0 -0 -0 -0 -0 -0 -0 -0 -0 -0 -0 -0 -0 -0 -0 -0 -0 -0 -0 -0 -0 -0 -0 -0 -0 -0 -0 -0 -0 -0 -0 -0 -0 -0 -0 -0 -0 -0 -0 -0 -0 -0 -1
-0 -0 -0 -0 -0 -0 -0 -0 -0 -0 -0 -0 -0 -0 -0 -0 -0 -0 -0 -0 -0 -0 -0 -0 -0 -0 -0 -0 -0 -1 -0 -0 -0 -0 -0 -0 -0 -0 -0 -0 -0 -0 -1
-0 -0 -0 -0 -0 -0 -0 -0 -0 -0 -0 -0 -0 -0 -0 -0 -0 -0 -0 -0 -0 -0 -0 -0 -0 -0 -0 -0 -0 -0 -0 -0 -0 -0 -0 -0 -0 -0 -0 -1 -0 -1 -0
-0 -0 -0 -0 -0 -0 -0 -0 -0 -0 -0 -0 -0 -0 -0 -0 -0 -0 -0 -0 -0 -0 -0 -0 -0 -0 -0 -0 -0 -0 -0 -0 -0 -1 -0 -0 -0 -0 -0 -0 -0 -0 -0
-0 -0 -0 -0 -0 -0 -0 -0 -0 -0 -0 -0 -0 -0 -0 -0 -0 -0 -0 -0 -0 -0 -0 -0 -0 -0 -0 -0 -0 -0 -0 -0 -3 -0 -0 -0 -0 -0 -0 -0 -0 -0 -0
-0 -0 -0 -0 -0 -0 -0 -0 -0 -0 -0 -0 -0 -0 -0 -0 -0 -0 -0 -0 -0 -0 -1 -0 -0 -0 -0 -0 -0 -0 -1 -0 -0 -0 -0 -0 -0 -0 -0 -0 -0 -0 -0
-0 -0 -0 -0 -0 -0 -0 -0 -0 -0 -0 -0 -0 -0 -0 -0 -0 -0 -0 -0 -0 -1 -1 -6 -0 -0 -0 -0 -0 -0 -0 -0 -0 -0 -0 -0 -0 -0 -0 -0 -0 -0 -0
-0 -0 -0 -0 -0 -0 -0 -0 -0 -0 -0 -0 -0 -0 -0 -0 -0 -0 -0 -3 -3 -0 -0 -0 -0 -0 -0 -0 -0 -0 -0 -0 -0 -0 -0 -0 -0 -0 -0 -0 -2 -0 -0
-0 -0 -0 -0 -0 -0 -0 -0 -0 -0 -0 -0 -0 -0 -0 -0 -0 -0 -0 -0 -0 -0 -0 -0 -0 -0 -0 -0 -0 -0 -0 -0 -0 -0 -0 -0 -0 -0 -0 -0 -1 -0 -0
-0 -0 -0 -0 -0 -0 -0 -0 -0 -0 -0 -0 -0 -0 -0 -0 -0 -0 -0 -0 -0 -0 -0 -0 -0 -0 -0 -0 -0 -0 -0 -0 -0 -0 -0 -0 -0 -0 -0 -1 -0 -0 -0
-0 -0 -0 -0 -0 -0 -0 -0 -0 -0 -0 -0 -0 -0 -0 -0 -0 -0 -0 -0 -0 -0 -0 -0 -0 -0 -0 -0 -0 -0 -0 -0 -0 -0 -0 -0 -0 -0 -0 -0 -0 -0 -0
-0 -0 -0 -0 -0 -0 -0 -0 -0 -0 -0 -0 -0 -0 -0 -0 -0 -0 -0 -0 -0 -0 -0 -0 -0 -0 -0 -0 -0 -0 -0 -0 -0 -0 -0 -0 -0 -0 -0 -0 -0 -0 -0
-0 -0 -0 -0 -0 -0 -0 -0 -0 -0 -0 -0 -0 -0 -0 -0 -0 -0 -0 -0 -0 -0 -0 -0 -0 -0 -0 -0 -0 -0 -0 -0 -0 -0 -0 -0 -0 -0 -0 -0 -0 -0 -0
-0 -0 -0 -0 -0 -0 -0 -0 -0 -0 -0 -0 -0 -0 -0 -0 -0 -0 -0 -0 -0 -0 -0 -0 -0 -0 -0 -0 -0 -0 -0 -0 -0 -0 -0 -0 -0 -0 -0 -0 -0 -0 -0
-0 -0 -0 -0 -0 -0 -0 -0 -0 -0 -0 -0 -0 -0 -0 -0 -0 -0 -0 -0 -0 -0 -0 -0 -0 -0 -0 -0 -0 -0 -0 -0 -0 -0 -0 -0 -0 -0 -0 -0 -0 -0 -0
-0 -0 -0 -0 -0 -0 -0 -0 -0 -0 -0 -0 -0 -0 -0 -0 -0 -0 -0 -0 -0 -0 -0 -0 -0 -0 -0 -0 -0 -0 -0 -0 -0 -0 -0 -0 -0 -0 -0 -0 -0 -0 -0
-0 -0 -0 -0 -0 -0 -0 -0 -0 -0 -0 -0 -0 -0 -0 -0 -0 -0 -0 -0 -0 -0 -0 -0 -0 -0 -0 -0 -0 -0 -0 -0 -0 -0 -0 -0 -0 -0 -0 -0 -0 -0 -0
-0 -0 -0 -0 -0 -0 -0 -0 -0 -0 -0 -0 -0 -0 -0 -0 -0 -0 -0 -0 -0 -0 -0 -0 -0 -0 -0 -0 -0 -0 -0 -0 -0 -0 -0 -0 -0 -0 -0 -0 -0 -0 -0
-0 -0 -0 -0 -0 -0 -0 -0 -0 -0 -0 -0 -0 -0 -0 -0 -0 -0 -0 -0 -0 -0 -0 -0 -0 -0 -0 -0 -0 -0 -0 -0 -0 -0 -0 -0 -0 -0 -0 -0 -0 -0 -0
Wind_Speed
5 4 6 5 6 5 5 5 5 4 5 6 6 6 6 6 5 5 5 6 8 7 6 6 9 6 6 4 4 5 6 5 9 9 6 4 6 7 8 6 7 7 7
5 5 5 5 4 5 5 5 6 6 5 6 6 6 6 7 6 7 9 8 7 10 10 8 9 7 9 6 5 8 8 7 8 13 11 8 7 7 8 8 7 5 7
5 5 4 3 4 4 5 5 4 4 4 4 4 5 7 8 9 9 9 10 10 10 10 10 11 10 10 8 8 9 8 8 8 9 11 9 8 4 7 7 7 9 6
5 4 3 2 2 3 4 4 4 4 5 7 6 7 8 9 10 9 11 12 12 12 13 12 12 12 12 10 10 11 10 9 10 10 10 9 8 6 4 7 9 4 8
6 5 5 3 3 4 3 2 3 4 5 6 8 7 8 9 8 13 13 14 14 15 14 14 13 15 23 21 13 12 12 11 10 11 12 11 9 7 8 4 7 6 8
7 6 5 4 4 3 1 2 3 4 5 5 6 7 8 8 18 20 18 14 15 15 15 14 14 16 19 25 26 27 22 14 13 10 11 14 15 10 9 9 10 9 10
6 5 4 4 4 2 2 3 4 4 5 6 6 7 9 9 19 22 23 13 14 14 14 14 14 12 15 15 20 26 24 25 26 18 17 16 19 16 14 13 12 12 13
6 5 5 4 3 2 2 2 3 3 5 6 7 8 8 9 21 22 23 14 12 13 13 14 15 15 14 17 16 16 15 14 14 12 15 16 16 15 16 15 16 18 15
7 6 5 3 3 3 3 3 3 4 5 6 7 6 8 10 20 22 20 12 12 13 13 14 14 15 21 26 18 15 13 12 15 25 28 30 29 28 26 14 13 13 16
6 5 4 4 4 1 2 3 1 3 7 7 8 8 10 11 19 21 19 9 11 10 12 14 20 21 26 26 17 14 14 14 14 14 14 18 21 19 28 18 12 14 16
6 5 4 3 2 0 1 1 2 4 6 5 9 8 9 11 13 20 22 12 10 11 10 9 10 25 28 27 27 15 16 18 19 16 13 11 10 11 10 11 15 15 15
5 4 3 2 1 1 1 2 3 3 5 6 7 8 7 9 15 18 23 23 22 13 12 11 12 27 30 31 26 28 31 26 10 9 10 11 11 11 12 13 16 17 16
5 4 3 1 2 2 2 4 3 3 3 5 6 7 8 7 8 19 24 26 25 17 11 20 32 31 31 24 26 29 25 12 11 11 12 13 12 13 15 15 15 18 21
5 4 3 2 3 3 3 4 3 4 4 5 6 7 8 8 8 9 10 9 15 16 19 10 18 23 24 21 14 13 9 10 10 12 13 13 12 12 12 11 13 12 13
4 3 3 3 4 3 5 5 5 6 7 7 7 6 7 8 9 19 19 12 12 16 18 9 9 9 9 9 9 9 10 10 10 11 12 13 12 12 12 12 12 13 14
4 4 4 4 3 4 4 5 12 14 16 16 16 11 4 16 21 22 24 24 25 25 8 7 9 8 9 10 10 11 10 12 10 11 12 12 12 12 12 12 13 14 15
5 3 3 5 3 4 4 4 6 6 12 10 8 12 16 16 19 20 21 22 19 15 4 7 8 8 9 10 10 10 12 11 13 11 12 13 12 11 13 13 14 15 11
5 6 3 3 3 3 4 4 4 5 5 5 6 12 13 15 17 18 19 15 8 6 2 6 8 9 9 10 10 11 11 11 11 12 13 13 11 10 11 11 12 13 12
5 5 5 4 4 5 4 4 4 4 5 6 7 6 6 15 14 14 13 1 6 8 8 8 8 9 10 10 10 11 12 12 12 12 12 13 9 8 10 10 11 15 15
5 8 5 4 4 4 4 4 4 4 4 4 4 6 5 3 3 2 3 3 3 6 7 8 9 9 10 10 10 11 11 11 11 11 12 11 12 8 10 11 10 11 9
3 3 5 3 4 4 4 4 4 4 5 4 5 5 15 2 3 3 4 4 4 6 8 9 10 10 9 10 10 11 11 11 11 11 11 11 11 11 9 10 11 10 10
4 4 3 5 3 4 4 4 4 4 4 5 5 4 12 2 4 5 5 5 6 6 7 8 9 9 9 10 11 12 13 12 11 11 11 11 11 10 9 8 7 6 5
4 4 4 3 4 4 4 4 4 4 5 5 5 5 3 4 4 5 6 6 6 7 7 7 8 9 9 10 10 10 12 14 10 10 10 10 10 9 8 7 6 4 3
4 5 5 4 2 3 4 4 4 6 6 5 4 4 5 4 5 6 6 6 7 7 7 7 8 10 10 11 10 11 12 13 8 9 12 9 8 10 7 6 6 6 5
3 3 4 4 4 4 4 4 5 5 5 4 4 3 4 4 5 5 5 5 6 7 8 8 8 9 11 16 15 17 19 22 7 11 8 9 9 10 8 7 6 6 8
4 4 4 4 4 4 4 5 5 5 5 4 4 4 4 6 6 5 6 5 5 6 9 8 10 12 14 12 13 18 20 19 9 13 8 7 7 7 7 8 11 7 7
Wind_Direction
122 111 103 91 75 65 58 43 31 17 12 10 5 0 355 349 339 331 318 311 320 312 309 303 302 290 293 287 285 273 268 244 267 287 279 280 272 269 271 255 252 249 252
160 136 117 106 85 63 46 33 22 16 12 3 359 353 343 337 333 329 321 316 305 306 303 296 295 299 296 284 277 281 273 268 270 277 284 281 253 264 266 272 265 238 242
161 140 115 86 61 45 34 24 21 4 346 345 354 349 343 336 329 321 308 305 300 296 296 292 292 291 288 287 281 284 280 278 274 272 277 282 280 250 270 265 260 262 236
173 157 151 150 80 49 35 25 11 359 357 358 357 347 341 333 324 317 320 315 308 301 299 293 292 288 287 287 280 278 279 281 280 277 277 279 277 277 235 267 270 237 265
179 178 188 149 99 76 57 15 3 10 6 352 344 342 337 331 329 327 319 310 307 303 303 302 299 295 292 292 289 285 283 279 276 281 284 283 275 276 266 252 255 262 253
186 191 166 124 122 129 138 18 13 5 359 348 342 332 329 325 321 319 318 311 308 304 303 303 300 292 290 293 291 288 282 281 279 282 283 278 281 275 271 272 272 275 281
167 159 149 146 142 107 53 24 7 350 341 339 334 330 319 313 317 317 316 307 302 301 303 304 303 299 302 296 295 292 292 291 284 285 281 274 281 280 283 279 270 263 266
163 160 169 162 111 98 63 19 348 351 343 330 321 309 309 311 315 316 313 309 302 297 297 298 297 298 293 292 287 281 278 275 272 267 267 274 273 280 277 277 277 279 274
180 178 175 128 88 39 10 355 350 339 325 301 305 312 305 301 308 311 314 305 297 293 292 289 283 286 288 290 286 285 285 285 285 285 285 285 289 292 285 272 266 266 258
174 163 141 113 114 54 350 343 300 306 302 311 306 302 289 290 299 308 313 299 295 292 284 281 279 286 291 292 288 285 282 278 274 271 271 272 273 269 271 282 278 265 269
136 133 129 113 114 157 271 247 279 291 299 291 289 288 280 278 284 303 307 305 294 288 286 286 279 285 290 288 283 275 269 271 267 270 270 268 272 274 272 260 267 266 262
138 140 138 112 336 329 233 272 285 275 280 280 287 289 275 279 286 301 308 307 305 302 292 286 278 278 279 278 277 274 275 282 291 287 278 274 274 270 266 263 264 264 271
146 156 167 221 245 251 251 275 280 249 258 281 286 290 292 289 278 290 300 301 304 301 290 287 298 304 302 300 294 290 289 278 270 264 265 268 265 267 270 270 267 266 271
155 178 178 209 270 253 255 249 220 247 253 264 271 277 281 293 305 297 286 292 300 301 293 315 321 319 310 303 309 305 295 287 279 274 274 274 276 274 270 266 268 269 269
151 183 209 213 223 256 252 245 245 241 231 240 248 265 297 303 299 310 322 319 323 331 333 330 329 319 317 314 311 305 304 299 287 277 273 273 271 269 266 263 263 262 259
178 196 204 222 222 242 250 274 275 279 281 285 292 295 289 305 312 322 323 330 347 336 355 328 320 318 316 315 313 309 304 298 291 289 286 274 263 262 267 269 264 256 251
197 198 216 231 230 240 254 252 287 304 302 291 290 311 310 311 325 323 335 338 347 348 332 316 312 313 313 310 307 304 302 300 295 286 279 276 271 267 269 272 273 293 244
203 223 202 226 233 241 242 250 254 271 294 296 291 305 313 325 323 338 337 353 333 333 267 302 308 309 308 305 305 304 303 303 301 301 296 288 268 261 268 272 278 288 281
210 220 213 221 224 230 235 243 244 255 263 271 305 309 303 320 327 344 348 194 311 315 316 312 307 307 306 304 303 301 300 302 303 302 302 306 278 258 262 264 274 282 296
218 231 217 208 222 231 238 237 248 246 255 261 273 287 303 292 346 307 292 288 284 295 306 309 310 308 306 308 307 307 305 310 312 309 310 308 313 267 261 265 261 267 275
218 210 224 220 218 216 224 232 237 235 250 251 260 269 291 3 314 282 297 295 287 308 311 310 309 307 308 310 311 311 309 308 313 311 313 313 313 312 301 267 263 264 266
213 224 211 220 215 229 233 232 234 238 242 252 273 277 303 318 295 291 294 289 292 290 290 296 300 302 306 313 315 314 313 313 316 318 315 313 314 314 312 309 307 308 276
219 231 234 239 226 233 242 237 238 237 246 248 261 278 271 264 273 275 281 289 289 294 293 292 295 300 305 312 310 309 310 317 314 315 314 316 319 320 320 321 331 336 355
211 221 232 236 224 233 236 242 240 240 248 257 256 257 266 269 269 274 277 283 290 291 292 291 289 290 302 310 312 308 313 314 328 319 321 319 325 332 333 333 349 8 28
220 231 227 233 230 236 244 245 250 248 255 261 264 257 256 266 271 266 266 265 280 292 297 297 292 296 303 309 305 307 313 320 339 344 333 332 338 348 353 358 3 17 32
223 228 237 236 236 228 235 248 254 255 264 264 255 259 267 278 273 274 279 278 287 296 296 291 294 297 304 305 303 313 318 325 17 356 345 347 356 359 4 12 16 25 35